Content
SEND FEEDBACK

Daily
Averages
Monthly
Summary
United States of America

KEYHOLE STATE PARK, WYOMING


Home > North America > United States > Wyoming
Elevation: 4290 feet     Latitude: 44 17N     Longitude: 105 11W

WEATHER
 
SELECT A DAY
Number of Records: 227,916;   Date Range: 1/1/95 - 8/12/14
 
SHARE

PRINT THIS DATA

[ ← Previous Day ]
WEATHER ALMANAC - JANUARY 31, 2013
[ Next Day → ]
[ °C ]   °F
Weather ElementAverageHighLow
Temperature10.3 °F33.1 °F (11:53 pm)1.4 °F (6:00 am)
Dewpoint6.3 °F25 °F (10:53 pm)-2.2 °F (7:43 am)
Humidity84.1 %93 % (1:01 am)72 % (11:53 pm)
Barometer30.13 in30.34 in (9:53 am)29.90 in (1:01 am)
Wind Speed10.9 mph17.3 mph (1:44 am)
Wind Gust19.6 mph (1:19 am)
Weather ElementAverage
Visibility4.1 mi
Wind DirectionWNW (279.6 °)

Weather ElementTotal
Precipitation0.18 in
Heating Degree Days47.8 (Base 65)
Averaged from 49 records on January 31, 2013
WEATHER CONDITIONS BREAKOUT
WIND DIRECTION BREAKOUT
WEATHER BY HOUR - JANUARY 31, 2013
[ °C ]   °F
Local TimeTemperatureDewpointHumidityBarometerVisibilityWind DirectionWind SpeedGust SpeedPrecipitationEventsConditions
1:01 AM17.6 °F15.8 °F93 %29.90 in2.0 miNNW (330°)12.7 mph0.00 inSnowLight Snow
1:19 AM17.6 °F15.8 °F93 %29.90 in3.0 miNNW (330°)11.5 mph19.6 mph0.00 inSnowLight Snow
1:44 AM15.8 °F12.2 °F86 %29.91 in2.5 miNNW (340°)17.3 mph0.00 inSnowLight Snow
1:53 AM15.1 °F12.9 °F91 %30.06 in2.0 miNorth (350°)16.1 mph0.00 inSnowLight Snow
2:02 AM14.0 °F10.4 °F86 %29.93 in1.8 miNorth (360°)15.0 mph0.00 inSnowLight Snow
2:29 AM10.4 °F8.6 °F92 %29.95 in2.0 miNorth (350°)13.8 mph0.00 inSnowLight Snow
2:36 AM10.4 °F8.6 °F92 %29.94 in1.5 miNorth (350°)15.0 mph0.00 inSnowLight Snow
2:53 AM10.0 °F7.0 °F87 %30.10 in1.8 miNNW (340°)16.1 mph0.00 inSnowLight Snow
3:50 AM6.8 °F3.2 °F85 %29.99 in1.8 miNorth (360°)12.7 mph0.01 inSnowLight Snow
3:53 AM6.1 °F3.0 °F87 %30.16 in2.0 miNorth (10°)12.7 mph0.01 inSnowLight Snow
4:00 AM6.8 °F3.2 °F85 %30.00 in1.5 miNorth (10°)9.2 mphSnowLight Snow
4:14 AM5.0 °F3.2 °F92 %30.02 in1.0 miNorth (360°)16.1 mph0.00 inSnowLight Snow
4:53 AM3.0 °F0.0 °F87 %30.22 in1.0 miNorth (350°)13.8 mph0.02 inSnowLight Snow
5:30 AM3.2 °F-0.4 °F85 %30.04 in1.5 miNNW (340°)15.0 mph0.01 inSnowLight Snow
5:42 AM3.2 °F-0.4 °F85 %30.05 in2.0 miNNW (340°)15.0 mph0.01 inSnowLight Snow
5:53 AM1.9 °F-0.9 °F88 %30.24 in1.8 miNNW (340°)11.5 mph0.02 inSnowLight Snow
6:00 AM1.4 °F-0.4 °F92 %30.05 in2.5 miNNW (340°)10.4 mph0.00 inSnowLight Snow
6:11 AM1.4 °F-0.4 °F92 %30.05 in2.0 miNNW (340°)12.7 mph0.00 inSnowLight Snow
6:30 AM1.4 °F-0.4 °F92 %30.06 in1.5 miNNW (340°)11.5 mph0.00 inSnowLight Snow
6:53 AM1.9 °F-0.9 °F88 %30.27 in1.8 miNW (320°)15.0 mph0.01 inSnowLight Snow
7:43 AM1.4 °F-2.2 °F85 %30.10 in3.0 miNNW (330°)12.7 mph0.01 inSnowLight Snow
7:53 AM1.9 °F-0.9 °F88 %30.30 in2.5 miNW (320°)12.7 mph0.02 inSnowLight Snow
8:13 AM1.4 °F-2.2 °F85 %30.11 in1.5 miNNW (330°)15.0 mph0.00 inSnowLight Snow
8:53 AM1.9 °F-0.9 °F88 %30.32 in1.5 miWNW (300°)8.1 mph0.01 inSnowLight Snow
9:28 AM3.2 °F-0.4 °F85 %30.13 in2.5 miNW (310°)6.9 mph0.00 inSnowLight Snow
9:35 AM3.2 °F-0.4 °F85 %30.13 in4.0 miNW (310°)5.8 mph0.00 inSnowLight Snow
9:51 AM3.2 °F-0.4 °F85 %30.13 in2.0 miNW (320°)4.6 mph0.00 inSnowLight Snow
9:53 AM3.9 °F-0.9 °F80 %30.34 in1.8 miNW (320°)3.5 mph0.00 inSnowLight Snow
10:05 AM3.2 °F-0.4 °F85 %30.13 in2.5 miWest (270°)4.6 mph0.00 inSnowLight Snow
10:14 AM3.2 °F-0.4 °F85 %30.14 in2.0 miWest (280°)5.8 mph0.00 inSnowLight Snow
10:22 AM5.0 °F1.4 °F85 %30.14 in1.2 miWest (260°)5.8 mph0.00 inSnowLight Snow
10:36 AM5.0 °F-0.4 °F78 %30.14 in2.0 miWSW (250°)8.1 mph0.00 inSnowLight Snow
10:48 AM6.8 °F1.4 °F79 %30.14 in0.8 miWest (280°)5.8 mph0.01 inSnowLight Snow
10:53 AM6.1 °F1.0 °F80 %30.33 in1.0 miWest (260°)5.8 mph0.01 inSnowLight Snow
11:27 AM6.8 °F3.2 °F85 %30.11 in3.0 miSW (230°)6.9 mph0.01 inSnowLight Snow
11:36 AM8.6 °F3.2 °F79 %30.12 in7.0 miWSW (250°)6.9 mph0.01 inOvercast
11:53 AM9.0 °F3.0 °F77 %30.30 in9.0 miWest (260°)6.9 mph0.01 inOvercast
12:53 PM10.9 °F5.0 °F77 %30.27 in9.0 miCalm0.00 inOvercast
1:53 PM12.0 °F6.1 °F77 %30.26 in10.0 miSSW (210°)8.1 mph0.00 inOvercast
2:53 PM16.0 °F10.9 °F81 %30.25 in10.0 miWSW (250°)9.2 mphOvercast
3:53 PM18.0 °F12.9 °F81 %30.25 in10.0 miWSW (250°)16.1 mphOvercast
4:53 PM21.9 °F16.0 °F78 %30.23 in10.0 miWSW (250°)13.8 mphOvercast
5:53 PM24.1 °F18.0 °F77 %30.23 in10.0 miWSW (240°)15.0 mphOvercast
6:53 PM24.1 °F19.0 °F81 %30.24 in9.0 miWSW (240°)12.7 mph0.00 inOvercast
7:53 PM26.1 °F19.9 °F78 %30.22 in10.0 miSW (230°)10.4 mphOvercast
8:53 PM28.9 °F23.0 °F78 %30.19 in10.0 miSW (230°)11.5 mphOvercast
9:53 PM32.0 °F24.1 °F73 %30.16 in10.0 miWSW (240°)13.8 mphOvercast
10:53 PM32.0 °F25.0 °F75 %30.14 in10.0 miWSW (240°)11.5 mphOvercast
11:53 PM33.1 °F25.0 °F72 %30.14 in10.0 miWSW (240°)12.7 mphOvercast
Hourly data recorded from KGCC, located miles away from Keyhole State Park, Wyoming







STORIES FROM OUR PARTNERS